GFSGBSN_700_temp_108.txt.gz
Temp
3 3 3 3 3 3 3 3 3 3 3 2 2 2 2 2 2 2 2 2 2 2 2 2 3 3 3 4 4 3 4 4 4 4 4 4 4 4 4 4 4 4 4 4 4 4 5
2 2 2 2 2 2 2 2 3 3 3 3 1 2 2 2 1 2 2 2 1 1 2 2 2 2 3 4 3 4 4 4 4 4 4 4 3 3 3 3 4 4 4 4 4 4 4
2 3 2 2 2 2 2 3 3 2 2 3 2 1 1 2 2 2 2 2 1 2 1 1 2 2 2 3 3 3 3 3 3 3 3 3 3 3 2 3 3 4 4 3 3 3 3
3 3 3 3 2 2 2 2 2 2 1 2 2 1 1 1 1 1 1 1 1 1 1 1 1 2 2 3 3 2 3 3 3 3 3 2 2 2 1 2 2 2 2 2 2 2 3
3 3 3 3 3 2 1 1 2 2 1 1 1 0 1 1 1 1 1 1 1 1 1 1 1 1 2 2 3 3 2 3 2 2 2 2 1 0 0 1 1 1 2 1 1 1 1
3 3 3 3 3 2 1 1 2 1 0 1 1 -0 0 1 1 0 1 1 1 0 1 1 1 1 1 2 2 2 2 2 2 1 1 1 -1 -1 0 0 -1 -0 -0 -1 -1 -0 0
3 3 3 3 3 3 2 1 1 0 -0 -0 -0 -1 0 0 0 -0 -0 -0 0 0 0 0 1 1 1 1 1 1 1 0 0 -0 -0 -1 -1 -0 0 -1 -1 -2 -2 -2 -1 -1 -2
2 2 2 2 2 2 2 1 1 -1 0 0 -0 0 -0 -0 0 -0 -0 -1 -1 -1 -0 -0 0 0 1 0 -0 1 -1 -1 -0 -1 -1 -1 -1 -0 -2 -2 -2 -2 -3 -2 -2 -2 -2
2 2 2 1 1 1 1 1 0 0 -0 -1 -0 -0 -0 -0 -1 -1 -1 -1 -2 -2 -2 -1 -0 0 0 0 0 1 0 -1 -1 -1 -2 -2 -2 -2 -2 -2 -2 -2 -3 -3 -2 -3 -2
2 1 1 1 1 1 1 0 -0 0 -0 -0 -1 -0 -0 -1 -1 -2 -1 -2 -3 -2 -2 -1 -0 -1 -2 -1 -1 -2 -2 -2 -3 -2 -3 -3 -3 -3 -3 -3 -3 -3 -3 -3 -3 -3 -3
2 1 1 1 1 0 0 -0 -1 -1 -1 -1 -1 -2 -1 -2 -2 -2 -3 -3 -3 -3 -3 -2 -2 -2 -3 -2 -3 -3 -3 -3 -3 -3 -3 -3 -3 -3 -3 -3 -3 -4 -3 -3 -3 -4 -4
1 1 1 1 1 0 -0 -1 -1 -1 -1 -2 -2 -2 -2 -2 -2 -3 -5 -4 -4 -3 -3 -2 -3 -3 -3 -3 -3 -3 -3 -3 -3 -3 -3 -3 -3 -4 -4 -4 -4 -4 -4 -4 -4 -4 -5
1 0 0 -0 -0 -0 -0 -1 -1 -2 -3 -2 -3 -3 -3 -3 -3 -6 -6 -5 -4 -4 -3 -3 -4 -3 -4 -4 -4 -3 -3 -3 -3 -3 -4 -4 -4 -4 -5 -5 -5 -5 -6 -7 -7 -6 -5
0 0 -0 -1 -1 -1 -1 -1 -2 -2 -2 -3 -3 -3 -3 -3 -5 -6 -5 -6 -5 -3 -3 -4 -4 -3 -4 -4 -4 -4 -4 -4 -4 -5 -6 -6 -6 -6 -6 -6 -7 -7 -6 -6 -6 -5 -5
-0 -0 -0 -1 -2 -2 -1 -2 -2 -3 -4 -4 -3 -3 -5 -4 -7 -8 -7 -6 -4 -4 -3 -4 -4 -4 -4 -4 -5 -5 -5 -5 -6 -7 -7 -7 -7 -7 -6 -6 -7 -7 -6 -5 -6 -6 -6
-1 -1 -0 -1 -2 -2 -2 -3 -3 -4 -4 -3 -4 -4 -4 -7 -7 -7 -6 -5 -5 -4 -4 -4 -5 -5 -5 -6 -6 -6 -6 -7 -7 -7 -7 -8 -8 -8 -7 -7 -6 -6 -6 -6 -7 -8 -6
-1 -1 -0 -1 -2 -2 -2 -3 -4 -4 -4 -4 -4 -4 -7 -7 -7 -6 -6 -6 -5 -5 -5 -5 -5 -5 -6 -6 -7 -7 -7 -7 -7 -7 -8 -8 -9 -8 -8 -7 -6 -6 -7 -7 -7 -5 -6
-1 -1 -1 -1 -2 -2 -3 -4 -5 -4 -4 -5 -5 -8 -7 -8 -7 -7 -6 -6 -5 -6 -5 -5 -6 -6 -6 -7 -8 -8 -7 -7 -8 -8 -8 -8 -9 -9 -7 -7 -7 -7 -7 -7 -8 -5 -4
-1 -1 -2 -2 -3 -3 -4 -4 -4 -4 -5 -4 -6 -8 -9 -8 -7 -6 -6 -6 -6 -5 -5 -5 -6 -6 -6 -7 -8 -8 -8 -8 -8 -8 -9 -9 -9 -9 -6 -6 -7 -7 -7 -6 -7 -7 -4
-1 -4 -3 -4 -4 -4 -4 -4 -4 -5 -5 -6 -8 -10 -9 -9 -7 -6 -7 -6 -5 -5 -6 -6 -6 -6 -7 -8 -8 -8 -8 -9 -9 -8 -9 -9 -9 -8 -8 -6 -8 -7 -7 -7 -7 -7 -5
-4 -4 -4 -3 -5 -4 -4 -4 -4 -5 -6 -9 -10 -9 -8 -8 -7 -7 -6 -5 -6 -6 -6 -6 -6 -7 -7 -8 -8 -8 -8 -8 -8 -7 -8 -9 -9 -8 -7 -7 -8 -8 -7 -8 -4 -5 -5
-4 -4 -4 -6 -5 -5 -4 -6 -6 -6 -8 -10 -8 -8 -7 -7 -6 -6 -6 -7 -6 -6 -7 -7 -6 -7 -7 -7 -8 -9 -9 -9 -8 -8 -8 -8 -8 -8 -7 -7 -8 -8 -7 -8 -8 -8 -7
-4 -4 -4 -5 -6 -7 -6 -7 -7 -10 -10 -9 -8 -7 -7 -6 -6 -6 -7 -7 -7 -7 -7 -7 -7 -7 -8 -8 -8 -8 -8 -7 -7 -8 -9 -8 -8 -8 -7 -7 -7 -8 -9 -8 -8 -8 -8
-7 -6 -6 -6 -6 -7 -7 -10 -10 -10 -9 -8 -8 -7 -6 -6 -7 -8 -7 -7 -7 -7 -7 -7 -7 -7 -8 -8 -8 -7 -6 -6 -6 -7 -7 -8 -8 -8 -7 -7 -7 -9 -9 -9 -8 -8 -8
-7 -7 -7 -7 -8 -9 -10 -10 -10 -9 -8 -7 -7 -6 -6 -6 -7 -8 -8 -8 -8 -7 -7 -8 -8 -7 -7 -7 -6 -6 -6 -6 -6 -6 -7 -7 -8 -8 -6 -8 -9 -9 -8 -8 -8 -8 -8
-9 -9 -8 -9 -10 -11 -10 -9 -9 -8 -7 -7 -7 -7 -7 -7 -9 -8 -8 -8 -7 -7 -7 -7 -7 -7 -7 -6 -6 -7 -7 -7 -7 -7 -7 -7 -6 -6 -7 -6 -7 -8 -8 -8 -8 -8 -8
-9 -10 -10 -11 -10 -10 -9 -8 -8 -8 -7 -7 -7 -7 -8 -8 -8 -8 -7 -7 -7 -7 -7 -7 -7 -7 -7 -7 -7 -7 -8 -7 -7 -8 -8 -7 -7 -7 -7 -8 -8 -8 -7 -8 -8 -8 -8
-11 -11 -11 -10 -9 -8 -8 -8 -8 -7 -7 -7 -7 -8 -8 -8 -8 -8 -8 -8 -7 -7 -7 -7 -7 -7 -7 -6 -7 -7 -7 -7 -8 -8 -8 -9 -8 -8 -8 -8 -8 -8 -8 -8 -8 -8 -8
-11 -10 -10 -9 -8 -8 -8 -8 -7 -7 -7 -7 -8 -8 -8 -8 -8 -9 -8 -8 -7 -7 -7 -7 -7 -7 -6 -7 -7 -7 -8 -8 -8 -8 -8 -8 -9 -9 -9 -9 -9 -8 -7 -7 -8 -8 -8

GFSGBSN_700_temp_111.txt.gz
Temp
3 3 3 3 3 3 3 3 3 3 3 3 2 2 3 3 3 3 3 3 2 2 3 3 2 2 2 3 4 4 4 4 4 4 3 3 3 3 4 4 4 4 4 4 4 4 4
3 3 2 3 3 3 3 3 3 2 3 2 3 2 2 3 3 2 2 3 2 2 3 3 3 1 2 4 3 4 4 4 4 3 4 3 3 3 3 4 4 3 3 4 4 4 4
3 3 3 2 3 2 3 3 2 2 3 2 2 2 2 2 2 2 2 2 2 2 2 3 2 2 1 2 2 3 3 3 3 2 3 3 3 3 3 3 3 3 3 3 4 3 4
3 3 3 3 3 2 3 2 2 2 2 2 2 1 1 1 2 0 1 1 3 2 2 2 2 2 2 2 3 2 3 3 3 2 2 2 2 2 2 2 2 2 2 2 3 2 2
3 3 3 3 3 3 2 2 1 2 1 2 1 0 1 1 1 1 0 1 2 3 2 2 2 1 2 2 3 3 2 2 2 2 2 1 1 1 -0 1 1 1 1 1 1 1 1
2 3 3 3 3 3 3 2 2 1 1 1 1 1 0 1 -0 0 -0 0 1 1 2 2 2 1 2 2 2 2 2 2 1 1 0 0 -0 -1 -1 0 -0 0 -1 -1 -2 0 -0
2 2 2 2 3 3 3 2 2 1 1 0 0 -0 0 -1 -0 -0 0 -1 -0 0 1 1 1 1 1 1 1 1 1 0 -0 -0 -0 -1 -1 -1 -0 -1 -1 -2 -2 -2 -1 -1 -1
1 1 2 2 2 2 2 2 2 1 1 0 0 -0 -0 -1 -1 -1 -2 -1 -1 -1 -0 -0 -0 0 0 -0 -0 0 0 -1 -1 -1 -1 -1 -2 -1 -1 -1 -2 -2 -3 -3 -2 -2 -2
1 1 1 1 2 1 1 2 2 1 0 -0 -1 -1 -1 -1 -1 -1 -2 -1 -1 -1 -2 -1 -1 -0 -0 -1 -0 -0 -1 -1 -1 -1 -1 -2 -2 -2 -2 -3 -3 -3 -3 -2 -3 -3 -3
0 1 1 1 1 1 1 1 1 1 0 -0 -1 -1 -1 -1 -1 -1 -1 -1 -1 -3 -6 -2 -1 -0 -0 -1 -1 -1 -1 -1 -2 -2 -2 -2 -3 -3 -3 -3 -3 -3 -2 -2 -3 -4 -3
-1 -0 0 0 1 1 1 1 0 -0 -0 -1 -1 -1 -1 -1 -2 -2 -2 -2 -5 -6 -4 -2 -2 -2 -3 -3 -3 -3 -3 -3 -3 -3 -3 -3 -3 -3 -3 -3 -3 -3 -3 -4 -4 -5 -5
-1 -0 -1 -0 0 0 0 0 -0 -0 -1 -1 -2 -2 -2 -2 -2 -2 -3 -3 -7 -5 -4 -2 -3 -4 -3 -3 -3 -3 -3 -3 -3 -3 -3 -3 -3 -3 -3 -4 -4 -4 -4 -4 -4 -5 -4
-1 -1 -1 -1 -1 -0 -0 -0 -1 -1 -2 -3 -2 -3 -2 -3 -2 -3 -3 -5 -7 -5 -3 -3 -4 -4 -4 -4 -4 -4 -3 -3 -3 -4 -4 -3 -4 -4 -4 -5 -5 -5 -6 -4 -4 -5 -3
-2 -1 -1 -1 -1 -1 -1 -1 -3 -3 -3 -3 -4 -3 -4 -3 -4 -4 -4 -7 -7 -4 -3 -3 -3 -4 -4 -4 -4 -4 -4 -4 -3 -4 -4 -5 -5 -5 -5 -5 -6 -6 -6 -5 -5 -4 -3
-2 -2 -2 -1 -1 -2 -2 -2 -4 -4 -4 -4 -4 -4 -4 -4 -5 -3 -6 -8 -6 -5 -4 -4 -4 -4 -4 -4 -4 -4 -4 -4 -5 -5 -5 -6 -7 -6 -5 -6 -7 -7 -7 -6 -6 -6 -5
-2 -2 -2 -2 -2 -2 -2 -3 -4 -4 -4 -4 -4 -4 -4 -5 -4 -5 -9 -7 -6 -5 -4 -4 -4 -4 -4 -4 -5 -5 -5 -5 -6 -6 -7 -7 -8 -7 -7 -7 -7 -7 -7 -7 -7 -6 -5
-3 -2 -2 -2 -3 -3 -2 -3 -4 -4 -4 -5 -4 -4 -5 -5 -5 -9 -9 -8 -7 -6 -5 -4 -4 -4 -5 -5 -5 -6 -6 -6 -7 -7 -8 -8 -9 -8 -8 -7 -7 -7 -8 -7 -7 -6 -4
-3 -2 -2 -3 -3 -3 -3 -4 -4 -3 -4 -5 -5 -5 -5 -5 -7 -9 -9 -8 -7 -6 -5 -5 -5 -5 -6 -6 -6 -6 -6 -7 -8 -8 -8 -8 -8 -9 -8 -7 -7 -8 -8 -8 -8 -5 -6
-4 -3 -3 -3 -3 -3 -3 -4 -3 -3 -4 -4 -5 -5 -7 -7 -9 -8 -8 -8 -7 -6 -5 -6 -5 -5 -5 -6 -7 -8 -8 -8 -8 -8 -9 -8 -9 -9 -7 -7 -7 -8 -8 -7 -7 -7 -7
-6 -5 -4 -4 -3 -2 -3 -3 -4 -4 -4 -5 -5 -6 -9 -10 -9 -8 -8 -8 -6 -6 -6 -5 -5 -6 -6 -7 -7 -8 -8 -8 -8 -8 -9 -9 -9 -8 -6 -6 -7 -9 -8 -8 -7 -7 -5
-6 -5 -4 -3 -2 -3 -3 -5 -5 -5 -5 -5 -6 -6 -6 -9 -9 -8 -7 -7 -7 -6 -6 -5 -6 -6 -6 -7 -7 -8 -8 -8 -8 -9 -9 -10 -9 -8 -7 -7 -8 -8 -8 -8 -8 -7 -6
-4 -4 -3 -3 -3 -3 -5 -4 -5 -4 -5 -5 -6 -6 -7 -7 -9 -8 -8 -7 -6 -7 -6 -6 -6 -6 -7 -7 -7 -7 -8 -9 -9 -9 -9 -8 -8 -8 -7 -7 -8 -9 -8 -8 -9 -8 -7
-4 -5 -5 -5 -4 -5 -4 -5 -4 -4 -6 -6 -6 -5 -7 -9 -9 -9 -7 -7 -6 -7 -7 -6 -6 -7 -7 -7 -7 -8 -8 -8 -8 -9 -9 -8 -8 -8 -8 -8 -8 -8 -9 -8 -8 -8 -9
-4 -4 -4 -4 -4 -4 -4 -5 -5 -5 -5 -6 -7 -7 -9 -9 -8 -7 -7 -7 -6 -6 -7 -7 -7 -7 -7 -7 -7 -8 -8 -7 -7 -7 -8 -8 -8 -8 -8 -8 -6 -9 -9 -9 -9 -9 -9
-4 -4 -5 -5 -4 -6 -6 -6 -6 -7 -7 -9 -9 -9 -8 -7 -7 -7 -7 -7 -7 -7 -7 -7 -7 -7 -7 -7 -7 -7 -7 -7 -7 -7 -7 -7 -8 -8 -7 -8 -9 -9 -9 -9 -9 -9 -9
-8 -6 -6 -6 -7 -7 -6 -7 -7 -8 -9 -10 -9 -8 -7 -7 -7 -7 -7 -8 -7 -7 -7 -7 -7 -7 -7 -7 -7 -7 -7 -7 -7 -7 -7 -7 -7 -8 -7 -7 -7 -7 -8 -8 -9 -9 -9
-7 -7 -7 -6 -7 -7 -7 -8 -9 -9 -9 -9 -8 -7 -6 -6 -7 -8 -8 -8 -8 -7 -7 -7 -7 -7 -7 -7 -7 -7 -7 -7 -7 -7 -8 -7 -8 -8 -7 -8 -8 -8 -7 -8 -9 -8 -8
-8 -8 -8 -8 -9 -10 -10 -10 -9 -9 -8 -8 -7 -7 -7 -7 -8 -8 -8 -7 -7 -7 -7 -7 -7 -7 -7 -7 -7 -7 -7 -8 -8 -8 -8 -8 -8 -8 -8 -8 -8 -8 -8 -8 -8 -7 -8
-10 -10 -11 -10 -10 -10 -10 -9 -8 -8 -8 -7 -7 -7 -7 -8 -8 -9 -8 -8 -7 -7 -7 -6 -7 -7 -7 -7 -6 -7 -8 -8 -8 -9 -9 -8 -9 -8 -8 -8 -8 -7 -8 -8 -8 -8 -8

GFSGBSN_700_temp_114.txt.gz
Temp
2 2 3 2 3 3 3 3 3 3 3 3 3 3 3 3 3 3 3 3 3 4 4 4 4 4 4 4 4 3 3 4 4 3 3 3 3 3 3 3 4 4 4 4 4 4 4
2 3 2 2 2 2 3 3 3 3 3 2 2 2 2 3 3 2 2 3 3 3 3 4 4 3 4 4 4 4 3 4 3 3 3 3 3 3 3 3 3 2 4 4 4 4 4
2 2 2 3 2 2 2 2 2 2 2 2 2 2 2 2 2 2 2 2 3 3 3 3 3 3 4 4 4 4 3 3 3 2 2 2 2 2 2 2 3 3 3 2 4 2 3
2 3 3 3 3 3 2 2 1 2 2 2 2 1 1 1 1 2 2 2 2 3 2 3 3 3 3 4 4 4 3 3 3 2 2 1 2 2 2 2 1 2 1 2 3 3 1
2 2 3 3 3 3 3 2 2 2 1 2 1 1 1 1 1 1 1 1 2 2 2 3 2 2 3 3 4 4 3 2 2 2 2 2 0 0 0 0 1 1 3 3 2 1 2
2 2 2 2 3 3 3 3 2 2 1 1 0 1 1 1 1 0 -0 1 2 1 2 2 2 2 2 2 3 2 2 2 1 1 0 1 -0 -1 -1 0 3 4 2 2 1 1 0
1 1 1 2 2 2 2 3 2 2 2 1 1 0 1 1 1 0 -0 1 -0 0 1 1 1 1 1 1 1 1 1 1 0 0 -1 -1 -1 -0 1 1 -0 -1 -0 0 1 0 -1
0 0 1 1 1 1 2 2 2 2 1 1 1 1 1 0 -0 -0 -1 -0 -1 -1 -0 0 1 1 0 0 -0 0 0 0 0 -1 -1 -2 -1 0 -1 -1 -2 -1 -1 0 0 -1 -1
-0 0 0 1 1 1 1 1 1 1 1 1 0 0 -0 0 -1 -1 -1 -1 -1 -1 -1 -0 0 1 0 -0 -1 -1 -1 -1 -2 -1 -1 -1 1 -1 -2 -2 -2 -1 -1 -0 -1 -1 -1
-1 -0 -0 0 0 0 1 1 1 1 0 0 -1 -0 -1 -1 -2 -2 -2 -2 -2 -2 -2 -1 -1 -0 -0 -1 -1 -1 -1 -2 -3 -2 -2 -2 -2 -2 -3 -2 -2 -1 -1 -2 -2 -2 1
-2 -1 -1 -1 -0 -0 -0 0 -0 -0 -0 -1 -1 -1 -1 -3 -2 -2 -2 -2 -2 -2 -2 -1 -1 -2 -1 -1 -2 -2 -2 -2 -2 -3 -2 -1 -3 -3 -3 -2 -3 -2 -3 -3 -3 -3 -2
-2 -2 -2 -1 -1 -1 -1 -1 -1 -1 -2 -2 -1 -1 -2 -2 -2 -3 -3 -2 -3 -4 -2 -2 -2 -2 -3 -3 -3 -2 -3 -3 -3 -3 -4 -2 -3 -3 -3 -3 -3 -3 -4 -3 -3 -3 -1
-3 -2 -2 -2 -2 -2 -1 -1 -2 -1 -3 -3 -2 -2 -3 -3 -3 -4 -3 -3 -3 -4 -2 -3 -3 -3 -4 -4 -3 -3 -3 -3 -3 -3 -2 -3 -4 -4 -3 -4 -4 -4 -4 -1 -0 -1 1
-3 -3 -3 -2 -2 -2 -2 -2 -2 -2 -3 -2 -4 -4 -3 -3 -3 -3 -3 -4 -5 -3 -3 -3 -3 -3 -4 -4 -4 -4 -4 -4 -3 -3 -3 -2 -2 -5 -4 -4 -3 -4 -4 -1 -1 1 2
-4 -4 -3 -3 -2 -3 -3 -3 -3 -3 -3 -2 -4 -4 -4 -4 -4 -4 -4 -5 -3 -3 -3 -3 -3 -4 -5 -4 -4 -4 -4 -4 -4 -4 -4 -4 -4 -5 -4 -5 -6 -5 -5 -4 -4 -3 -3
-5 -4 -4 -3 -3 -3 -3 -4 -3 -4 -4 -2 -4 -4 -4 -4 -4 -5 -5 -5 -5 -4 -4 -4 -3 -3 -3 -4 -4 -4 -4 -4 -5 -4 -5 -6 -5 -6 -6 -7 -7 -6 -6 -6 -5 -4 -3
-5 -5 -4 -4 -4 -3 -4 -4 -4 -3 -3 -4 -4 -4 -4 -5 -6 -5 -5 -5 -6 -5 -4 -4 -4 -4 -4 -4 -4 -5 -5 -5 -5 -6 -6 -7 -7 -6 -7 -7 -5 -6 -7 -6 -5 -4 -2
-6 -5 -5 -4 -4 -4 -4 -5 -5 -3 -4 -4 -5 -4 -4 -5 -6 -5 -5 -7 -6 -6 -5 -5 -4 -4 -4 -4 -5 -6 -6 -7 -6 -7 -8 -8 -8 -7 -6 -6 -7 -6 -6 -5 -5 -4 -4
-9 -7 -6 -5 -4 -4 -4 -5 -5 -3 -4 -4 -4 -5 -5 -5 -5 -6 -8 -6 -7 -7 -6 -5 -5 -5 -5 -6 -6 -6 -6 -6 -7 -8 -8 -8 -8 -6 -6 -7 -7 -7 -7 -6 -7 -7 -5
-10 -10 -9 -6 -5 -4 -5 -6 -5 -3 -5 -4 -5 -6 -6 -6 -6 -8 -7 -7 -8 -8 -7 -6 -5 -5 -6 -5 -6 -6 -8 -7 -8 -8 -9 -9 -8 -8 -4 -5 -6 -7 -7 -8 -8 -7 -4
-10 -10 -10 -9 -6 -6 -6 -6 -4 -3 -5 -4 -4 -5 -3 -7 -7 -7 -7 -8 -8 -7 -7 -6 -6 -6 -6 -6 -8 -7 -7 -7 -8 -8 -9 -9 -9 -8 -8 -8 -7 -8 -8 -8 -8 -8 -8
-8 -9 -9 -10 -7 -7 -6 -6 -4 -4 -5 -6 -4 -4 -5 -6 -6 -6 -9 -8 -8 -7 -7 -6 -7 -7 -6 -7 -6 -6 -7 -8 -8 -8 -10 -10 -9 -8 -8 -7 -8 -8 -8 -8 -9 -9 -9
-8 -8 -8 -9 -9 -7 -5 -4 -3 -4 -6 -4 -5 -5 -5 -5 -6 -8 -8 -8 -8 -8 -8 -7 -7 -7 -6 -7 -7 -7 -8 -8 -8 -9 -9 -8 -9 -8 -6 -8 -8 -8 -9 -9 -8 -9 -9
-6 -8 -7 -8 -7 -5 -4 -4 -5 -6 -5 -5 -5 -5 -5 -6 -7 -6 -8 -9 -8 -8 -7 -7 -7 -7 -7 -6 -7 -7 -7 -8 -8 -8 -9 -8 -8 -8 -6 -8 -5 -8 -8 -9 -9 -8 -9
-5 -6 -7 -6 -5 -6 -6 -6 -6 -5 -6 -4 -5 -5 -5 -5 -7 -9 -9 -9 -9 -7 -7 -7 -7 -7 -7 -7 -7 -8 -8 -8 -7 -7 -8 -8 -8 -7 -6 -6 -8 -9 -8 -8 -9 -9 -9
-5 -5 -6 -5 -5 -6 -5 -6 -5 -5 -5 -6 -5 -5 -5 -6 -8 -8 -9 -8 -7 -7 -7 -7 -7 -7 -7 -7 -8 -7 -6 -6 -7 -7 -7 -8 -7 -8 -6 -4 -4 -8 -7 -8 -8 -9 -8
-4 -5 -5 -6 -5 -5 -5 -5 -5 -5 -5 -5 -5 -6 -7 -7 -8 -9 -8 -8 -7 -7 -8 -7 -7 -7 -7 -8 -8 -6 -6 -7 -6 -6 -8 -8 -7 -8 -6 -5 -7 -7 -7 -8 -8 -7 -8
-6 -5 -5 -5 -5 -5 -5 -6 -6 -6 -6 -7 -8 -8 -7 -7 -7 -8 -7 -7 -7 -7 -7 -7 -7 -7 -7 -8 -7 -7 -8 -8 -8 -8 -8 -8 -7 -7 -7 -6 -6 -7 -7 -8 -7 -7 -8
-8 -7 -7 -7 -7 -7 -7 -7 -7 -8 -9 -9 -8 -7 -7 -7 -7 -8 -8 -8 -7 -7 -6 -6 -6 -6 -7 -8 -7 -7 -8 -8 -8 -7 -8 -8 -8 -8 -7 -7 -7 -7 -7 -7 -7 -8 -8

GFSGBSN_700_temp_117.txt.gz
Temp
3 3 3 3 2 2 2 2 2 3 3 3 3 3 3 3 3 3 3 3 3 4 4 4 4 5 4 5 5 5 4 4 4 4 4 4 3 2 3 4 4 4 4 4 4 3 4
3 3 2 2 2 1 1 1 2 3 2 2 2 2 3 3 3 3 3 3 3 3 3 4 4 5 5 5 5 4 4 4 4 4 4 4 3 2 2 3 3 4 3 3 4 3 3
2 2 2 2 2 1 1 1 2 2 2 2 2 2 2 2 2 2 2 2 2 3 3 3 3 4 5 5 5 5 5 4 3 3 3 2 3 2 2 2 3 2 2 3 4 4 4
2 2 2 2 2 1 2 2 2 1 2 2 1 2 2 1 2 1 1 2 2 2 2 3 3 3 5 5 6 5 5 4 3 3 3 2 3 3 2 2 2 2 3 4 6 4 3
2 2 2 2 2 2 2 2 2 2 2 2 2 1 2 1 2 1 1 1 2 2 2 2 3 2 4 4 5 4 3 4 4 3 2 3 2 2 1 1 3 4 5 5 6 4 3
1 1 1 1 2 2 2 2 2 2 2 2 1 1 1 1 1 1 0 1 1 2 2 2 2 3 3 3 3 3 3 3 2 2 1 2 0 1 1 2 4 6 6 7 6 5 4
1 1 1 1 1 1 2 1 2 2 2 2 2 1 1 1 1 0 0 -0 0 1 2 1 1 2 2 2 2 1 2 2 2 -0 -0 0 1 2 3 4 4 3 3 3 4 4 4
-0 -0 0 1 1 1 1 1 1 1 1 1 1 1 1 1 -0 0 1 -0 0 -0 0 0 1 2 2 1 1 -0 -0 0 -0 0 1 1 1 2 2 3 2 2 2 3 3 3 3
-1 -1 -0 -0 0 0 1 1 1 1 1 1 1 0 1 -0 -0 -0 -1 -0 -0 -1 -1 0 0 2 1 1 2 1 -1 -1 -0 0 1 2 3 2 1 1 1 1 2 2 2 2 2
-1 -1 -1 -1 -0 -0 -0 0 0 0 0 1 0 0 -0 -0 -1 -1 -1 -1 -1 -2 -2 0 0 0 2 1 0 0 -1 -1 -1 -0 0 1 1 1 1 0 0 1 2 1 1 1 2
-2 -2 -2 -2 -1 -1 -1 -1 -0 -0 -0 -0 -0 -0 -0 -3 -1 -2 -2 -2 -3 -3 -1 1 -1 0 0 0 -1 0 -1 -2 -1 -0 -1 0 1 -1 -0 0 0 0 0 -1 -0 -0 -0
-3 -3 -2 -2 -2 -2 -2 -1 -1 -1 -1 -1 -1 -0 -1 -2 -2 -1 -3 -3 -3 -3 -0 -0 -1 -1 -0 -2 -2 -3 -1 -2 -2 -1 -0 -1 -1 -1 -1 -0 -1 -1 -1 -2 -1 -1 0
-3 -3 -3 -3 -3 -2 -2 -2 -2 -2 -1 -1 -1 -2 -3 -3 -2 -3 -3 -4 -3 -2 -0 0 -1 -2 -1 -2 -2 -2 -2 -2 -1 -1 -1 -0 -0 -1 -2 -2 -1 -2 -2 0 1 2 2
-4 -4 -3 -3 -3 -3 -3 -3 -2 -2 -2 -2 -2 -3 -4 -4 -3 -4 -3 -4 -4 -0 0 -1 -1 -2 -1 -1 -2 -2 -2 -1 -1 -2 -1 -1 -1 -0 -1 -2 -1 -1 -1 -0 -0 1 3
-5 -5 -4 -4 -3 -3 -3 -3 -3 -3 -3 -2 -3 -2 -3 -4 -4 -3 -3 -4 -2 -1 -0 -2 -2 -2 -1 -2 -2 -3 -2 -1 -1 -2 -2 -1 -0 -2 -3 -3 -3 -2 -2 -2 -2 -2 -1
-6 -6 -5 -5 -4 -4 -3 -4 -4 -4 -3 -2 -3 -3 -3 -4 -3 -4 -4 -4 -3 -3 -2 -2 -1 -1 -0 -1 -3 -3 -2 -2 -3 -3 -4 -3 -3 -2 -3 -5 -5 -4 -3 -3 -3 -3 -1
-7 -6 -6 -5 -5 -4 -4 -4 -4 -4 -4 -3 -4 -4 -3 -4 -4 -4 -4 -4 -3 -3 -3 -2 -1 -1 -1 -0 -2 -2 -2 -3 -4 -4 -4 -4 -5 -3 -5 -4 -4 -3 -4 -5 -3 -3 -1
-8 -7 -7 -6 -6 -5 -5 -4 -5 -5 -4 -4 -5 -5 -4 -4 -4 -4 -4 -5 -4 -3 -5 -4 -3 -2 -2 -2 -3 -3 -3 -3 -5 -5 -6 -5 -6 -5 -4 -3 -4 -4 -3 -4 -4 -3 -3
-10 -9 -8 -7 -6 -6 -5 -5 -5 -6 -4 -4 -5 -5 -5 -6 -5 -4 -5 -5 -5 -4 -5 -4 -4 -4 -4 -3 -4 -4 -5 -5 -5 -6 -6 -6 -6 -5 -4 -4 -5 -5 -5 -4 -4 -5 -4
-12 -12 -10 -10 -8 -7 -6 -6 -6 -5 -5 -5 -6 -5 -6 -5 -5 -5 -6 -6 -5 -5 -5 -5 -4 -5 -5 -4 -5 -5 -5 -6 -6 -7 -7 -8 -7 -6 -3 -6 -5 -5 -5 -5 -5 -5 -3
-12 -11 -11 -11 -11 -10 -8 -6 -7 -5 -7 -6 -6 -6 -4 -6 -5 -6 -6 -6 -5 -6 -5 -6 -6 -6 -5 -5 -5 -5 -6 -7 -7 -6 -7 -8 -8 -7 -7 -7 -6 -5 -5 -6 -6 -6 -6
-11 -11 -11 -11 -11 -11 -9 -8 -7 -7 -8 -7 -7 -6 -6 -6 -5 -6 -7 -6 -5 -6 -6 -6 -6 -6 -6 -6 -5 -5 -6 -8 -7 -8 -8 -8 -8 -8 -8 -6 -6 -6 -6 -7 -7 -7 -7
-11 -11 -11 -11 -11 -11 -11 -9 -8 -8 -8 -6 -7 -6 -6 -6 -5 -7 -6 -6 -5 -6 -7 -7 -6 -7 -6 -6 -6 -7 -7 -8 -7 -8 -8 -8 -8 -8 -6 -5 -7 -6 -7 -7 -8 -7 -8
-10 -10 -11 -11 -11 -11 -10 -10 -9 -8 -6 -7 -7 -6 -6 -5 -6 -5 -6 -6 -6 -7 -6 -7 -7 -6 -6 -7 -7 -7 -8 -8 -8 -8 -8 -8 -8 -7 -6 -6 -5 -7 -7 -8 -8 -9 -9
-9 -9 -10 -10 -10 -10 -10 -10 -8 -7 -6 -7 -7 -6 -6 -5 -7 -7 -6 -6 -7 -8 -7 -8 -7 -7 -7 -7 -8 -7 -8 -8 -8 -8 -8 -8 -8 -7 -6 -4 -7 -8 -7 -8 -8 -9 -9
-7 -9 -8 -10 -10 -10 -10 -9 -8 -7 -7 -8 -6 -7 -6 -6 -6 -6 -7 -8 -8 -8 -8 -8 -7 -7 -7 -8 -7 -7 -5 -5 -6 -7 -8 -8 -8 -8 -6 -4 -3 -7 -7 -7 -8 -8 -8
-5 -6 -8 -9 -10 -10 -10 -9 -8 -8 -8 -6 -8 -6 -5 -6 -6 -7 -7 -5 -8 -8 -8 -8 -7 -7 -7 -8 -8 -6 -4 -4 -5 -5 -7 -7 -7 -7 -6 -5 -7 -8 -6 -7 -8 -7 -7
-4 -6 -9 -9 -10 -9 -9 -9 -9 -8 -8 -6 -7 -6 -6 -5 -6 -6 -8 -8 -7 -7 -8 -8 -8 -8 -8 -8 -6 -5 -5 -6 -5 -6 -6 -6 -6 -6 -6 -5 -5 -6 -7 -7 -7 -7 -7
-7 -8 -8 -9 -9 -8 -7 -7 -7 -7 -6 -7 -6 -6 -6 -6 -8 -8 -8 -8 -8 -8 -7 -6 -7 -6 -7 -7 -6 -6 -7 -7 -6 -5 -7 -7 -7 -7 -6 -7 -6 -6 -6 -7 -6 -7 -7

GFSGBSN_700_temp_120.txt.gz
Temp
3 3 2 3 3 3 2 2 2 2 2 2 2 3 3 3 3 3 3 3 3 3 3 4 4 4 5 5 5 6 6 6 6 7 6 5 4 3 4 5 5 6 6 6 6 5 5
2 3 2 3 2 2 2 2 2 2 1 2 2 2 2 2 2 3 3 3 3 3 3 3 4 4 4 5 5 5 6 6 6 6 6 5 5 3 3 3 4 4 5 5 4 5 5
1 1 2 2 2 2 2 2 2 1 1 0 1 2 2 2 2 2 2 3 4 3 3 3 3 4 4 4 5 5 6 5 5 5 5 2 4 4 4 3 3 3 4 4 4 5 5
2 2 1 1 1 1 1 1 1 1 1 1 2 0 1 2 2 2 1 2 3 3 2 3 3 3 4 4 5 5 4 4 5 5 5 4 4 4 3 3 3 3 3 4 5 6 6
1 2 2 2 2 2 2 2 2 2 1 1 1 0 1 1 2 1 1 2 1 2 2 2 2 3 3 4 4 4 4 4 4 5 4 4 4 3 2 2 3 4 4 6 7 7 6
0 1 1 1 1 2 2 2 2 2 2 2 2 2 2 1 1 1 1 1 1 1 1 2 1 2 2 3 2 3 3 3 3 3 3 3 3 1 1 2 3 5 6 7 7 7 6
-0 0 0 0 1 1 1 2 2 2 2 2 2 2 2 1 -0 1 0 1 1 0 0 1 1 1 2 2 2 3 3 3 2 2 2 1 0 1 3 4 4 5 5 5 5 5 5
-1 -1 -0 -0 -0 0 0 1 1 1 2 2 2 2 1 1 0 -0 -0 0 0 -0 -0 0 1 3 3 2 1 2 1 1 1 1 1 1 1 2 3 3 3 4 4 4 3 4 4
-1 -1 -1 -1 -1 -1 -0 0 0 1 1 1 1 1 1 1 1 0 1 -1 -1 -1 -0 1 2 3 0 0 2 1 0 -1 -0 1 1 2 3 4 3 3 2 3 3 3 3 3 3
-2 -2 -2 -1 -1 -1 -1 -1 -0 -0 0 0 0 1 0 0 -0 -1 1 -1 -1 -1 -1 1 1 0 1 2 1 3 2 -0 -0 0 1 2 2 2 3 3 3 2 2 2 2 2 2
-3 -3 -3 -2 -2 -2 -2 -1 -1 -1 -1 -1 -0 0 0 -1 -0 -0 -0 -2 -3 -3 -0 2 1 1 1 2 1 1 1 -0 -0 0 1 1 2 2 2 1 1 2 2 1 1 1 1
-3 -3 -3 -3 -3 -3 -2 -2 -2 -2 -2 -1 -1 -1 -1 -1 -0 -2 -2 -3 -3 -3 -1 2 0 1 0 1 -1 -1 1 0 -1 -1 -0 1 1 1 1 1 1 1 0 0 0 0 1
-4 -4 -3 -3 -3 -3 -3 -3 -3 -2 -2 -2 -1 -1 -2 -2 -1 -3 -3 -3 -3 -2 1 2 1 -1 -1 -0 -0 -1 -1 -1 -0 -0 0 1 1 1 1 -0 -0 -0 -1 -0 0 1 2
-5 -5 -4 -4 -4 -4 -3 -3 -3 -3 -3 -2 -2 -3 -3 -3 -3 -3 -4 -4 -3 -0 0 1 1 0 -0 1 -0 -1 -1 -0 -0 -0 1 1 1 1 1 -0 -1 -1 -0 0 -1 0 1
-6 -6 -5 -5 -4 -4 -4 -4 -3 -4 -4 -3 -3 -3 -4 -4 -4 -4 -4 -4 -3 -1 1 2 1 0 0 0 0 -0 -1 -0 1 1 -0 -0 1 0 -1 -1 -2 -2 -1 -1 -1 -1 -1
-7 -7 -6 -6 -5 -5 -5 -4 -4 -4 -4 -4 -3 -4 -4 -4 -4 -3 -5 -4 -2 -2 -0 0 0 0 1 1 -1 -1 -1 -0 -1 -1 -1 -2 -2 -2 -2 -1 -2 -3 -2 -3 -2 -3 -3
-8 -7 -7 -6 -6 -6 -5 -5 -5 -5 -5 -4 -4 -5 -4 -5 -3 -4 -4 -3 -4 -3 -1 -1 0 0 1 1 1 -0 -0 -1 -2 -2 -2 -3 -3 -2 -2 -2 -2 -2 -3 -3 -3 -3 -3
-10 -9 -8 -8 -7 -6 -6 -5 -5 -6 -5 -5 -5 -6 -5 -5 -5 -5 -4 -2 -3 -2 -2 -2 -1 -1 -0 0 1 0 -0 -1 -2 -3 -4 -3 -4 -4 -3 -2 -2 -3 -3 -3 -4 -4 -3
-12 -12 -10 -8 -8 -7 -7 -6 -6 -6 -6 -5 -6 -6 -6 -5 -6 -5 -4 -4 -4 -3 -2 -3 -2 -2 -1 -1 -1 -1 -2 -2 -4 -4 -5 -5 -5 -5 -4 -3 -3 -3 -4 -4 -3 -5 -4
-12 -12 -12 -11 -9 -8 -8 -7 -7 -7 -6 -6 -8 -7 -6 -6 -5 -5 -4 -4 -4 -4 -3 -3 -3 -3 -2 -2 -2 -3 -3 -3 -4 -4 -5 -6 -6 -6 -5 -5 -5 -6 -6 -4 -4 -4 -4
-12 -12 -12 -12 -12 -10 -9 -8 -8 -8 -9 -8 -8 -7 -5 -5 -5 -5 -5 -5 -4 -4 -4 -3 -3 -3 -3 -4 -3 -3 -4 -4 -6 -5 -6 -7 -7 -7 -7 -6 -6 -5 -5 -4 -4 -4 -5
-12 -12 -12 -12 -12 -11 -11 -10 -9 -8 -9 -9 -8 -7 -6 -5 -5 -5 -5 -4 -4 -4 -4 -4 -4 -3 -4 -4 -4 -4 -4 -5 -6 -7 -7 -8 -8 -7 -7 -6 -6 -6 -5 -5 -5 -5 -6
-12 -12 -12 -12 -11 -12 -12 -11 -10 -10 -9 -8 -8 -7 -7 -5 -6 -5 -5 -5 -5 -4 -4 -4 -4 -5 -5 -5 -5 -5 -6 -5 -6 -7 -8 -8 -8 -8 -6 -5 -5 -5 -5 -5 -6 -6 -7
-11 -11 -12 -12 -12 -12 -12 -12 -11 -10 -9 -9 -7 -7 -7 -6 -6 -4 -4 -6 -5 -5 -5 -5 -5 -5 -6 -6 -6 -6 -6 -6 -6 -7 -7 -7 -8 -8 -6 -5 -5 -4 -5 -5 -7 -8 -8
-9 -10 -11 -11 -12 -11 -12 -12 -11 -10 -9 -8 -8 -7 -7 -6 -6 -6 -5 -5 -5 -5 -6 -6 -6 -6 -7 -7 -6 -7 -7 -7 -7 -7 -7 -7 -7 -7 -6 -4 -5 -6 -4 -5 -7 -8 -8
-9 -9 -10 -11 -11 -11 -11 -11 -11 -10 -9 -9 -7 -7 -7 -6 -6 -5 -6 -5 -5 -5 -7 -7 -7 -7 -7 -6 -7 -6 -5 -6 -5 -7 -7 -7 -7 -7 -6 -5 -4 -7 -5 -7 -7 -8 -8
-9 -9 -10 -10 -11 -11 -11 -11 -11 -10 -9 -9 -7 -7 -7 -6 -6 -5 -5 -5 -5 -7 -7 -8 -7 -7 -7 -7 -7 -6 -5 -5 -5 -6 -7 -7 -8 -7 -7 -6 -6 -7 -7 -7 -8 -6 -7
-8 -9 -9 -9 -10 -11 -11 -11 -11 -10 -10 -9 -7 -7 -6 -7 -6 -6 -6 -6 -6 -7 -7 -7 -8 -8 -7 -7 -7 -6 -5 -5 -5 -5 -6 -7 -7 -6 -6 -6 -5 -7 -7 -7 -6 -6 -7
-6 -8 -9 -9 -10 -10 -11 -11 -10 -10 -9 -9 -8 -7 -7 -7 -6 -6 -6 -6 -6 -7 -7 -7 -6 -6 -7 -7 -6 -5 -6 -6 -5 -5 -6 -6 -6 -6 -6 -6 -5 -6 -6 -6 -6 -6 -6

GFSGBSN_700_temp_123.txt.gz
Temp
2 2 2 2 2 2 2 2 2 2 2 2 2 2 2 2 3 2 2 3 3 3 4 4 4 4 4 4 5 6 6 6 7 6 6 7 7 5 6 6 5 6 6 6 6 6 6
2 2 2 2 2 2 2 2 2 2 2 2 2 2 2 2 2 2 2 2 3 3 3 4 4 4 4 4 5 5 6 6 6 6 5 5 6 6 6 6 5 6 5 6 6 6 6
1 1 1 1 2 2 2 2 2 2 2 2 2 2 1 1 1 1 2 2 2 3 3 3 3 3 4 4 4 5 5 5 5 5 5 4 5 5 4 5 4 4 5 5 6 6 6
2 2 2 2 1 1 2 2 2 2 1 1 1 1 0 0 0 1 1 1 2 1 2 2 3 3 4 4 5 4 5 4 5 5 5 4 4 4 4 4 4 4 4 4 7 7 6
1 2 1 2 2 2 2 1 1 1 1 0 1 1 0 2 0 1 1 1 1 2 1 1 2 3 3 4 4 3 4 4 5 5 4 4 4 4 4 4 3 3 3 4 5 6 6
1 1 1 1 1 1 1 2 2 2 2 2 2 2 1 1 0 1 1 1 1 1 1 2 2 3 3 3 3 3 3 4 4 3 4 3 3 3 3 3 2 3 4 4 5 5 5
0 0 0 1 1 1 1 1 1 1 1 2 2 2 1 1 1 1 1 0 1 1 1 2 2 3 2 2 2 3 4 3 3 2 2 2 1 2 2 2 2 3 3 4 4 4 4
-1 -0 -0 -0 -0 0 0 0 0 1 1 1 1 1 1 1 1 0 -0 -0 -0 1 1 2 2 3 4 2 3 3 3 2 1 2 1 0 -0 3 2 2 3 3 3 3 3 3 3
-1 -1 -1 -1 -1 -1 -1 -1 -0 -0 0 0 1 1 1 1 1 0 -0 -2 -0 -0 1 3 4 4 3 3 4 4 2 1 0 0 0 0 1 2 2 2 3 3 3 3 3 2 2
-2 -2 -2 -1 -1 -1 -1 -1 -1 -1 -1 -0 0 0 0 0 0 0 0 -1 -1 -1 -1 2 3 2 3 3 1 2 3 1 -1 1 1 0 1 2 2 2 2 3 2 2 2 2 1
-3 -3 -3 -2 -2 -2 -2 -2 -2 -1 -1 -1 -1 -0 -0 -1 -0 0 -0 -2 -3 -3 -3 2 2 2 2 3 3 2 3 2 1 -0 -0 1 2 2 2 2 2 2 1 1 1 1 0
-4 -4 -4 -3 -3 -3 -3 -3 -3 -2 -2 -2 -2 -1 -1 -1 -0 -1 -3 -3 -4 -3 -3 2 2 2 2 2 2 1 1 1 0 -0 -0 0 1 1 1 1 1 1 0 0 0 -0 -1
-4 -4 -4 -4 -4 -4 -3 -3 -3 -3 -3 -3 -2 -2 -2 -2 -1 -3 -3 -4 -4 -3 1 2 2 1 1 1 1 -0 0 0 0 -1 -0 1 1 1 1 1 1 0 -0 -2 -3 -3 -2
-5 -5 -5 -4 -4 -4 -4 -4 -3 -3 -3 -3 -3 -3 -3 -3 -3 -3 -4 -3 -4 -1 -0 2 1 1 0 -0 0 0 -0 -1 -1 -0 -0 -0 0 1 1 1 1 -0 -1 -1 -3 -4 -3
-7 -6 -5 -5 -5 -5 -4 -4 -4 -4 -4 -4 -4 -3 -3 -4 -3 -4 -3 -4 -2 -1 -0 0 1 1 0 0 0 0 -0 -0 -0 0 -0 0 0 0 0 0 -0 -1 -1 -1 -2 -3 -2
-9 -7 -7 -6 -6 -5 -5 -5 -5 -5 -5 -5 -4 -4 -4 -5 -4 -4 -5 -4 -2 -1 -1 0 0 0 0 0 0 0 -0 -0 -0 -0 -1 -0 -1 -0 -0 -1 -1 -2 -2 -2 -3 -4 -4
-11 -10 -9 -8 -7 -7 -6 -5 -5 -5 -6 -5 -5 -6 -4 -4 -4 -4 -5 -4 -3 -2 -2 -1 -1 -0 0 1 1 0 -0 -0 -0 -1 -0 -1 -1 -2 -2 -2 -2 -2 -2 -3 -3 -3 -6
-11 -12 -11 -10 -8 -8 -7 -7 -6 -6 -6 -6 -5 -8 -5 -7 -6 -5 -5 -5 -4 -3 -2 -2 -2 -1 -0 0 1 0 0 -0 -1 -1 -2 -2 -3 -4 -3 -3 -2 -3 -3 -3 -3 -4 -3
-12 -12 -12 -12 -11 -10 -9 -8 -7 -7 -7 -7 -7 -9 -7 -7 -7 -6 -4 -4 -4 -3 -3 -3 -2 -2 -1 -1 -1 -0 -0 -0 -1 -2 -3 -3 -4 -5 -4 -3 -3 -4 -4 -3 -3 -4 -4
-12 -12 -12 -12 -12 -12 -11 -10 -8 -7 -8 -9 -9 -8 -8 -7 -7 -6 -5 -5 -5 -3 -3 -3 -3 -3 -3 -1 -1 -1 -1 -1 -2 -3 -3 -4 -4 -5 -5 -4 -5 -5 -5 -5 -5 -6 -5
-13 -13 -12 -12 -12 -12 -12 -11 -10 -9 -9 -9 -9 -8 -7 -7 -6 -5 -6 -6 -6 -4 -4 -3 -4 -3 -3 -3 -2 -2 -2 -2 -3 -4 -4 -5 -5 -5 -6 -6 -6 -6 -5 -5 -5 -5 -5
-13 -13 -13 -12 -12 -12 -12 -12 -11 -10 -10 -10 -10 -8 -8 -6 -5 -6 -7 -6 -5 -3 -4 -4 -3 -3 -3 -3 -3 -3 -3 -3 -4 -5 -5 -5 -6 -7 -7 -6 -6 -6 -6 -6 -5 -5 -5
-13 -13 -13 -13 -12 -12 -12 -12 -12 -11 -11 -10 -8 -8 -7 -7 -7 -6 -5 -3 -4 -5 -4 -4 -3 -3 -3 -3 -4 -4 -4 -4 -5 -5 -5 -6 -7 -8 -7 -6 -6 -6 -5 -4 -4 -5 -5
-12 -12 -13 -13 -13 -12 -12 -12 -12 -12 -11 -10 -9 -8 -8 -8 -6 -4 -4 -4 -5 -4 -4 -4 -5 -4 -4 -4 -4 -4 -4 -5 -6 -6 -6 -6 -7 -8 -8 -6 -7 -4 -4 -4 -4 -5 -6
-12 -12 -12 -12 -12 -12 -12 -12 -12 -12 -11 -10 -8 -9 -8 -7 -6 -7 -6 -4 -4 -5 -4 -4 -5 -5 -4 -5 -5 -6 -6 -6 -6 -6 -7 -7 -7 -8 -7 -6 -5 -4 -5 -5 -5 -5 -6
-11 -11 -12 -12 -12 -12 -12 -12 -12 -12 -11 -10 -9 -8 -8 -7 -7 -7 -6 -6 -5 -5 -5 -5 -6 -5 -5 -5 -7 -7 -7 -6 -6 -7 -7 -7 -7 -7 -7 -6 -5 -5 -5 -5 -6 -6 -5
-10 -10 -11 -11 -12 -11 -12 -12 -12 -12 -11 -10 -8 -8 -8 -8 -7 -7 -6 -5 -5 -6 -5 -5 -6 -6 -6 -6 -7 -7 -6 -5 -5 -6 -7 -7 -7 -8 -8 -7 -6 -5 -6 -6 -7 -5 -5
-9 -10 -10 -10 -11 -11 -12 -12 -12 -12 -11 -10 -9 -9 -8 -8 -7 -6 -6 -5 -6 -6 -5 -6 -6 -7 -7 -7 -8 -7 -6 -5 -5 -6 -6 -6 -7 -7 -8 -7 -6 -7 -6 -6 -5 -6 -5
-8 -9 -10 -10 -10 -11 -11 -11 -12 -11 -11 -10 -9 -9 -9 -7 -7 -6 -6 -6 -6 -5 -5 -5 -5 -6 -7 -7 -8 -7 -6 -6 -5 -5 -6 -7 -6 -6 -6 -6 -6 -6 -6 -6 -6 -5 -6